Total_Precipitation_Accumulation
0.00 0.00 0.00 0.00 0.00 0.00 0.00 0.00 0.00 0.00 0.00 0.00 0.00 0.00 0.01 0.01 0.02 0.06 0.08 0.07 0.11 0.14
0.00 0.00 0.00 0.00 0.00 0.00 0.00 0.00 0.00 0.00 0.00 0.00 0.00 0.00 0.00 0.02 0.03 0.05 0.07 0.06 0.06 0.06
0.00 0.00 0.00 0.00 0.00 0.00 0.00 0.00 0.00 0.00 0.00 0.00 0.00 0.00 0.01 0.01 0.02 0.05 0.05 0.05 0.05 0.03
0.00 0.00 0.00 0.00 0.00 0.00 0.00 0.00 0.00 0.00 0.00 0.01 0.00 0.02 0.05 0.04 0.02 0.04 0.03 0.05 0.05 0.01
0.01 0.00 0.01 0.01 0.01 0.00 0.00 0.00 0.00 0.00 0.00 0.00 0.00 0.02 0.03 0.02 0.03 0.04 0.05 0.08 0.04 0.01
0.03 0.02 0.04 0.02 0.01 0.00 0.00 0.00 0.01 0.01 0.01 0.01 0.01 0.03 0.01 0.05 0.05 0.08 0.05 0.05 0.04 0.01
0.11 0.21 0.19 0.11 0.04 0.04 0.06 0.02 0.00 0.01 0.01 0.01 0.01 0.01 0.04 0.08 0.11 0.12 0.02 0.01 0.02 0.02
0.42 0.53 0.31 0.30 0.33 0.25 0.08 0.04 0.03 0.02 0.00 0.00 0.00 0.01 0.04 0.03 0.05 0.04 0.02 0.03 0.03 0.03
0.65 0.85 0.86 0.67 0.39 0.28 0.19 0.12 0.07 0.05 0.01 0.00 0.00 0.05 0.02 0.01 0.01 0.02 0.03 0.04 0.05 0.09
0.89 1.08 0.60 0.21 0.21 0.32 0.15 0.08 0.04 0.04 0.01 0.00 0.01 0.07 0.03 0.02 0.01 0.04 0.07 0.12 0.20 0.23
0.48 0.33 0.22 0.17 0.13 0.11 0.07 0.06 0.04 0.04 0.03 0.02 0.06 0.07 0.11 0.11 0.06 0.11 0.17 0.27 0.31 0.27
0.13 0.13 0.12 0.14 0.10 0.10 0.09 0.06 0.05 0.06 0.09 0.15 0.18 0.20 0.28 0.24 0.12 0.17 0.24 0.22 0.20 0.29
0.14 0.16 0.11 0.09 0.09 0.13 0.12 0.09 0.16 0.24 0.35 0.41 0.36 0.34 0.36 0.26 0.19 0.27 0.25 0.20 0.20 0.24
0.14 0.11 0.11 0.13 0.29 0.27 0.31 0.39 0.40 0.48 0.41 0.47 0.47 0.54 0.78 0.69 0.41 0.26 0.18 0.15 0.12 0.09